Regional Weather Roundup
Issued by NWS

Home | Current Version | Previous Version | Graphics & Text | Print | Product List | Glossary On
Versions: 1 2 3 4 5 6 7 8 9 10 11 12 13 14 15 16 17 18 19 20 21 22 23 24 25 26 27 28 29 30 31 32 33 34 35 36 37 38 39 40 41 42 43 44 45 46 47 48 49 50
000
ASUS44 KMEG 171600
RWRTN
TENNESSEE HOURLY STATE WEATHER ROUNDUP
NATIONAL WEATHER SERVICE MEMPHIS TN
1100 AM CDT THU APR 17 2014

TNZ002-004-019-021-049-052-054-088>092-171700-
WEST TENNESSEE

CITY           SKY/WX    TMP DP  RH WIND       PRES   REMARKS
MEMPHIS INTL   PTSUNNY   64  42  44 S9        30.30S
NWS MEMPHIS      N/A     63 N/A N/A MISG        N/A
JACKSON        SUNNY     61  39  44 S10       30.33R
DYERSBURG      SUNNY     61  39  44 S8        30.32S
UNION CITY     SUNNY     59  43  55 S13       30.31F
LEXINGTON      SUNNY     61  36  39 S12       30.34S
$$

TNZ008-025-027-028-033-062-065-066-171700-
NORTH MIDDLE TENNESSEE

CITY           SKY/WX    TMP DP  RH WIND       PRES   REMARKS
NASHVILLE      MOSUNNY   62  33  33 S14       30.39S
CLARKSVILLE    SUNNY     61  37  41 S12       30.35S
CROSSVILLE     SUNNY     54  24  31 SE10      30.41R
$$

TNZ061-075-076-078-094-096-097-171700-
SOUTH MIDDLE TENNESSEE

CITY           SKY/WX    TMP DP  RH WIND       PRES   REMARKS
TULLAHOMA      SUNNY     55  28  35 S7        30.40S
WINCHESTER     SUNNY     57  32  38 S9        30.39S
COLUMBIA       SUNNY     61  41  48 S6        30.36S
$$

TNZ017-018-042-046-047-171700-
NORTHEAST TENNESSEE

CITY           SKY/WX    TMP DP  RH WIND       PRES   REMARKS
TRI CITIES     MOSUNNY   56  23  27 VRB7      30.43F
ELIZABETHTON   SUNNY     54  25  32 CALM      30.43F
$$

TNZ012-013-036-069-073-074-171700-
CENTRAL EAST TENNESSEE

CITY           SKY/WX    TMP DP  RH WIND       PRES   REMARKS
KNOXVILLE      MOSUNNY   56  33  42 CALM      30.42S
OAK RIDGE      SUNNY     58  32  37 N5        30.43S
$$

TNZ083-085-099-171700-
SOUTHEAST TENNESSEE

CITY           SKY/WX    TMP DP  RH WIND       PRES   REMARKS
CHATTANOOGA    PTSUNNY   58  29  33 SE15      30.43S
$$

SKY/WX REPORTED AS FAIR MEANS FEW OR NO CLOUDS BELOW
12 THOUSAND FEET.




USA.gov is the U.S. government's official web portal to all federal, state and local government web resources and services.